This is the latest recevied weather packets stored in our database for station/object OH2EGI-2. If no packets are shown the sender has not sent any weather packets the latest 10 day(s).
| Time | Temp. | Humidity | Pressure | Rain* | Wind** | Luminosity | Snow |
|---|---|---|---|---|---|---|---|
| 1778084491 | 13.33° C | 33% | 1005.8 hPa | 0 mm | - | - | - |
| 1778084191 | 14.44° C | 32% | 1005.7 hPa | 0 mm | - | - | - |
| 1778083891 | 15.56° C | 31% | 1005.6 hPa | 0 mm | - | - | - |
| 1778083591 | 17.22° C | 29% | 1005.7 hPa | 0 mm | - | - | - |
| 1778083291 | 18.33° C | 30% | 1005.7 hPa | 0 mm | - | - | - |
| 1778082991 | 18.33° C | 31% | 1005.6 hPa | 0 mm | - | - | - |
| 1778082691 | 17.22° C | 32% | 1005.7 hPa | 0 mm | - | - | - |
| 1778082391 | 16.11° C | 33% | 1005.7 hPa | 0 mm | - | - | - |
| 1778082091 | 15° C | 35% | 1005.7 hPa | 0 mm | - | - | - |
| 1778081791 | 15° C | 35% | 1005.6 hPa | 0 mm | - | - | - |
| 1778081491 | 13.89° C | 36% | 1005.6 hPa | 0 mm | - | - | - |
| 1778081191 | 13.33° C | 37% | 1005.6 hPa | 0 mm | - | - | - |
| 1778080891 | 12.78° C | 37% | 1005.7 hPa | 0 mm | - | - | - |
| 1778080591 | 12.78° C | 37% | 1005.7 hPa | 0 mm | - | - | - |
| 1778080291 | 13.89° C | 36% | 1005.7 hPa | 0 mm | - | - | - |
| 1778079991 | 13.89° C | 36% | 1005.6 hPa | 0 mm | - | - | - |
| 1778079691 | 14.44° C | 35% | 1005.7 hPa | 0 mm | - | - | - |
| 1778079391 | 15° C | 34% | 1005.6 hPa | 0 mm | - | - | - |
| 1778079091 | 15° C | 34% | 1005.7 hPa | 0 mm | - | - | - |
| 1778078791 | 16.67° C | 33% | 1005.8 hPa | 0 mm | - | - | - |
| 1778078491 | 16.67° C | 34% | 1005.6 hPa | 0 mm | - | - | - |
| 1778078191 | 16.11° C | 36% | 1005.8 hPa | 0 mm | - | - | - |
| 1778077891 | 13.89° C | 38% | 1005.7 hPa | 0 mm | - | - | - |
| 1778077591 | 13.89° C | 37% | 1005.7 hPa | 0 mm | - | - | - |
| 1778077291 | 13.89° C | 37% | 1005.7 hPa | 0 mm | - | - | - |
* Rain latest hour (hover to see other rain measurements)
** Current wind speed in m/s (hover to see current wind gust speed)